   P08 - SEUMA, Av. Deputado Paulino Rocha, n. 1343, Cajazeiras;;;;;;;;;;;;;;;;
M�S  ;�xido de Enxofre;�xido N�trico;Di�xido de Nitrog�nio;�xidos de Nitrog�nio;Oz�nio;Material Particulado <10�m;Material Particulado <2,5�m;Mon�xido de carbono;VelVento (m/s);DirVento (�);T-PM10 (�C);UR (%);Press (mbar);RadSol (W/m�);Chuva;chuva 24h
fev/24;SO2 (�g/m�);NO (�g/m�);NO2 (�g/m�);NOx (�g/m�);O3 (�g/m�);MP10 (�g/m�);MP2,5 (�g/m�);CO (ppm);;;;;;;;
01/02/2024 00:00;6;0;2;3;44;29;19;0,2;2,4;98,0;28,2;76,7;1003,3;0;0,0;0,4
01/02/2024 01:00;5;0;2;2;45;30;15;0,2;2,6;98,4;28,1;75,2;1002,7;0;0,0;
01/02/2024 02:00;6;0;1;2;47;29;16;0,2;2,5;102,0;28,0;74,8;1002,2;0;0,0;
01/02/2024 03:00;6;0;1;2;47;28;16;0,2;2,2;102,2;28,0;75,4;1002,2;0;0,0;
01/02/2024 04:00;7;0;2;2;48;27;12;0,2;2,2;96,8;27,9;74,9;1002,2;0;0,0;
01/02/2024 05:00;7;0;2;3;47;29;18;0,2;1,8;110,1;27,5;80,3;1002,4;0;0,0;
01/02/2024 06:00;7;0;5;5;41;30;16;0,3;1,8;133,6;26,6;87,1;1002,8;3;0,4;
01/02/2024 07:00;7;1;10;12;32;31;16;0,3;1,9;134,5;26,5;86,3;1003,2;52;0,0;
01/02/2024 08:00;7;6;14;23;21;36;19;0,5;1,7;168,2;27,1;83,5;1003,9;144;0,0;
01/02/2024 09:00;7;5;8;15;31;47;19;0,3;2,7;163,3;28,3;76,8;1004,2;245;0,0;
01/02/2024 10:00;5;1;5;7;53;32;13;0,3;3,2;122,5;29,7;67,4;1004,1;548;0,0;
01/02/2024 11:00;6;1;3;5;56;27;9;0,3;4,0;110,5;30,5;61,2;1003,9;942;0,0;
01/02/2024 12:00;6;1;3;5;57;28;8;0,3;3,8;100,5;30,8;60,2;1003,5;963;0,0;
01/02/2024 13:00;6;1;3;5;56;30;8;0,3;4,3;97,8;30,6;61,2;1003,0;944;0,0;
01/02/2024 14:00;7;1;3;5;54;28;8;0,3;4,8;90,7;30,5;60,4;1002,4;854;0,0;
01/02/2024 15:00;6;1;3;5;54;30;11;0,2;4,7;93,4;30,2;62,4;1001,5;660;0,0;
01/02/2024 16:00;7;1;3;5;52;33;11;0,3;4,4;88,4;30,1;64,1;1001,0;214;0,0;
01/02/2024 17:00;6;2;4;7;46;38;13;0,3;3,6;90,9;29,6;68,1;1000,8;192,0;0,0;
01/02/2024 18:00;7;2;6;9;46;31;16;0,4;2,9;87,5;28,7;73,6;1001,3;31,0;0,0;
01/02/2024 19:00;7;1;6;7;38;32;14;0,3;2,5;83,8;28,3;74,0;1001,8;0,0;0,0;
01/02/2024 20:00;6;1;5;6;37;31;19;0,3;2,5;84,8;28,1;74,5;1002,6;0,0;0,0;
01/02/2024 21:00;7;0;3;4;39;28;17;0,2;2,5;85,8;28,1;74,2;1003,1;0,0;0,0;
01/02/2024 22:00;7;0;3;4;42;30;13;0,2;2,4;86,9;28,0;75,0;1003,5;0,0;0,0;
01/02/2024 23:00;7;1;3;4;36;24;15;0,2;2,4;97,9;28,0;75,4;1003,6;0,0;0,0;
02/02/2024 00:00;7;0;3;3;37;27;15;0,2;2,1;90,3;27,9;76,2;1003,0;0,0;0,0;0,0
02/02/2024 01:00;7;1;2;3;37;26;17;0,2;1,9;98,9;27,8;76,5;1002,4;0,0;0,0;
02/02/2024 02:00;6;0;2;3;36;28;18;0,2;1,8;101,9;27,7;75,8;1002,2;0,0;0,0;
02/02/2024 03:00;6;0;2;2;38;30;12;0,2;1,8;99,4;27,4;76,1;1001,9;0,0;0,0;
02/02/2024 04:00;5;0;1;2;39;30;11;0,2;1,7;103,2;27,4;75,6;1002,1;0,0;0,0;
02/02/2024 05:00;5;0;2;3;39;32;17;0,2;1,6;114,6;27,3;76,0;1002,3;0,0;0,0;
02/02/2024 06:00;6;1;5;6;31;27;17;0,2;1,4;124,6;27,1;77,0;1002,4;3,0;0,0;
02/02/2024 07:00;6;6;17;26;7;38;19;0,4;1,3;161,3;26,7;79,7;1002,8;56,0;0,0;
02/02/2024 08:00;6;7;12;24;23;48;15;0,4;1,8;143,5;28,3;71,9;1003,5;138,0;0,0;
02/02/2024 09:00;7;3;5;10;37;41;13;0,3;3,2;110,3;29,5;65,5;1003,9;203,0;0,0;
02/02/2024 10:00;6;2;4;7;35;24;10;0,2;3,7;114,2;30,2;59,4;1003,9;643,0;0,0;
02/02/2024 11:00;6;1;3;5;36;27;16;0,2;3,8;109,8;30,9;55,8;1003,5;885,0;0,0;
02/02/2024 12:00;6;1;3;6;39;33;12;0,2;3,8;98,3;31,1;57,3;1003,0;1077,0;0,0;
02/02/2024 13:00;6;2;4;7;37;27;7;0,2;4,1;103,7;31,1;57,5;1002,5;897,0;0,0;
02/02/2024 14:00;6;1;4;6;35;27;11;0,2;3,8;94,7;30,7;61,1;1002,0;601,0;0,0;
02/02/2024 15:00;6;2;4;6;38;31;14;0,2;4,6;76,2;29,1;68,2;1001,9;412,0;0,0;
02/02/2024 16:00;;1;3;5;38;25;11;0,2;4,4;81,2;29,0;66,4;1001,4;309,0;0,0;
02/02/2024 17:00;7;2;4;7;35;27;13;0,2;3,8;82,9;28,7;69,3;1001,3;148,0;0,0;
02/02/2024 18:00;7;2;7;9;36;33;10;0,3;2,4;87,6;28,5;67,5;1001,5;31,0;0,0;
02/02/2024 19:00;6;1;7;8;38;26;12;0,2;3,1;86,5;28,4;69,7;1002,2;0,0;0,0;
02/02/2024 20:00;7;1;5;6;43;30;12;0,3;3,2;71,8;27,6;75,7;1002,8;0,0;0,0;
02/02/2024 21:00;6;0;4;5;52;29;10;0,2;2,2;85,2;28,1;70,3;1003,1;0,0;0,0;
02/02/2024 22:00;6;0;4;5;50;21;11;0,2;2,4;76,5;28,7;63,8;1003,3;0,0;0,0;
02/02/2024 23:00;8;1;4;5;45;19;11;0,2;2,1;89,2;28,5;67,0;1003,5;0,0;0,0;
03/02/2024 00:00;7;1;4;5;39;22;11;0,2;2,0;94,5;27,8;75,2;1003,2;0,0;0,0;0,0
03/02/2024 01:00;7;1;3;4;36;28;18;0,2;2,0;104,0;27,8;79,0;1003,0;0,0;0,0;
03/02/2024 02:00;8;0;3;3;38;36;14;0,2;2,4;103,3;27,8;76,3;1002,5;0,0;0,0;
03/02/2024 03:00;9;0;2;2;43;36;20;0,2;2,9;106,0;27,9;76,4;1002,3;0,0;0,0;
03/02/2024 04:00;8;0;2;2;53;32;18;0,2;2,3;112,9;27,8;74,8;1002,6;0,0;0,0;
03/02/2024 05:00;8;1;2;3;61;32;14;0,3;1,6;112,3;27,6;72,8;1003,0;0,0;0,0;
03/02/2024 06:00;8;1;3;4;54;29;14;0,3;2,0;121,8;27,3;77,4;1003,3;2,0;0,0;
03/02/2024 07:00;9;1;5;6;54;34;14;0,3;1,7;111,0;27,7;75,8;1003,6;78,0;0,0;
03/02/2024 08:00;9;1;5;6;59;29;19;0,3;2,7;110,5;28,9;68,3;1004,0;158,0;0,0;
03/02/2024 09:00;9;1;4;5;56;21;7;0,3;3,8;108,3;29,4;65,5;1004,3;284,0;0,0;
03/02/2024 10:00;7;1;4;6;59;28;17;0,3;4,0;107,8;29,7;64,2;1004,5;650,0;0,0;
03/02/2024 11:00;7;1;3;5;57;34;13;0,3;4,6;104,2;30,5;60,8;1004,3;873,0;0,0;
03/02/2024 12:00;8;1;3;5;51;37;14;0,2;4,8;109,2;30,8;59,0;1003,7;1020,0;0,0;
03/02/2024 13:00;8;1;3;4;56;34;16;0,2;4,7;102,5;31,0;57,6;1003,0;977,0;0,0;
03/02/2024 14:00;;1;3;5;68;26;9;0,3;4,2;103,3;30,6;58,2;1002,4;857,0;0,0;
03/02/2024 15:00;;1;3;4;60;31;15;0,3;4,2;91,8;30,6;58,3;1001,5;530,0;0,0;
03/02/2024 16:00;;1;4;5;62;37;9;0,3;3,7;90,7;30,0;63,2;1001,0;233,0;0,0;
03/02/2024 17:00;9;1;3;5;57;27;10;0,3;3,3;105,3;29,6;64,2;1001,2;166,0;0,0;
03/02/2024 18:00;8;1;4;5;57;28;12;0,3;2,9;84,3;29,0;69,5;1001,6;35,0;0,0;
03/02/2024 19:00;8;1;4;5;52;37;15;0,3;2,3;87,5;28,6;73,5;1002,2;0,0;0,0;
03/02/2024 20:00;9;1;5;5;49;26;18;0,3;2,4;85,9;28,5;74,0;1002,9;0,0;0,0;
03/02/2024 21:00;8;1;4;5;47;35;16;0,3;2,2;84,3;28,4;75,8;1003,8;0,0;0,0;
03/02/2024 22:00;9;1;4;5;40;38;22;0,3;2,5;85,8;28,3;77,0;1004,1;0,0;0,0;
03/02/2024 23:00;9;0;3;4;39;39;23;0,3;2,6;92,5;28,2;78,9;1004,0;0,0;0,0;
04/02/2024 00:00;8;0;3;4;41;42;20;0,3;2,3;93,9;28,2;78,3;1003,6;0,0;0,0;0,0
04/02/2024 01:00;7;0;3;3;42;37;14;0,2;2,6;99,5;28,1;79,1;1003,0;0,0;0,0;
04/02/2024 02:00;7;0;2;3;43;36;20;0,2;3,0;105,2;28,1;77,5;1002,5;0,0;0,0;
04/02/2024 03:00;7;1;1;2;48;34;19;0,2;3,0;105,9;28,0;76,7;1002,3;0,0;0,0;
04/02/2024 04:00;8;0;2;2;41;36;17;0,2;2,6;111,3;27,9;76,7;1002,2;0,0;0,0;
04/02/2024 05:00;8;1;2;2;41;34;21;0,2;3,1;120,0;27,9;76,3;1002,4;0,0;0,0;
04/02/2024 06:00;8;1;2;3;36;27;15;0,2;3,2;131,5;27,7;71,5;1002,8;4,0;0,0;
04/02/2024 07:00;8;1;4;5;38;34;10;0,2;2,6;141,6;27,7;70,3;1003,2;70,0;0,0;
04/02/2024 08:00;7;2;5;8;29;38;12;0,3;2,3;161,6;28,1;69,2;1003,9;188,0;0,0;
04/02/2024 09:00;7;1;3;5;36;35;7;0,2;4,2;125,0;29,2;64,1;1004,4;234,0;0,0;
04/02/2024 10:00;7;1;2;4;38;36;10;0,2;4,9;113,0;30,0;56,9;1004,4;736,0;0,0;
04/02/2024 11:00;;1;2;3;41;30;8;0,2;5,1;119,7;30,1;53,0;1003,9;750,0;0,0;
04/02/2024 12:00;;1;2;4;42;35;10;0,2;5,3;118,3;30,7;50,0;1003,1;960,0;0,0;
04/02/2024 13:00;;1;3;4;45;33;12;0,2;4,8;108,6;31,2;46,3;1002,0;1040,0;0,0;
04/02/2024 14:00;;1;2;3;47;30;10;0,2;5,0;107,9;31,1;46,4;1001,2;921,0;0,0;
04/02/2024 15:00;;1;2;4;51;29;13;0,2;4,9;99,8;31,0;46,1;1000,6;697,0;0,0;
04/02/2024 16:00;;1;3;4;51;34;10;0,2;4,8;92,8;30,3;58,8;1000,0;213,0;0,0;
04/02/2024 17:00;;1;3;4;50;33;9;0,2;4,5;84,5;29,9;59,2;999,9;181,0;0,0;
04/02/2024 18:00;;1;3;4;48;29;10;0,2;4,0;89,7;29,0;67,5;1000,3;33,0;0,0;
04/02/2024 19:00;7;1;5;6;40;36;18;0,2;3,0;94,2;28,5;72,4;1001,1;0,0;0,0;
04/02/2024 20:00;8;1;5;6;36;36;19;0,3;2,2;110,5;28,5;73,5;1001,9;0,0;0,0;
04/02/2024 21:00;9;0;4;5;39;37;15;0,2;2,5;107,0;28,3;75,4;1002,5;0,0;0,0;
04/02/2024 22:00;9;1;3;4;41;33;19;0,2;2,6;108,1;28,2;77,1;1002,6;0,0;0,0;
04/02/2024 23:00;8;0;3;3;43;36;17;0,2;2,7;107,9;28,1;77,9;1002,7;0,0;0,0;
05/02/2024 00:00;8;0;2;3;43;33;18;0,2;2,7;106,2;28,0;76,6;1002,3;0,0;0,0;0,0
05/02/2024 01:00;7;0;2;3;42;33;12;0,2;2,3;109,7;27,8;74,2;1002,0;0,0;0,0;
05/02/2024 02:00;6;1;2;3;44;33;17;0,2;2,4;109,6;27,8;74,6;1002,0;0,0;0,0;
05/02/2024 03:00;6;0;2;2;44;28;11;0,2;2,7;105,2;27,8;74,8;1002,0;0,0;0,0;
05/02/2024 04:00;6;1;2;3;42;27;8;0,2;2,5;111,7;27,7;74,6;1002,2;0,0;0,0;
05/02/2024 05:00;6;1;2;3;40;29;13;0,2;2,8;122,4;27,5;75,4;1002,2;0,0;0,0;
05/02/2024 06:00;6;1;3;5;36;31;12;0,2;2,9;131,0;27,3;75,4;1002,5;3,0;0,0;
05/02/2024 07:00;6;3;11;16;23;37;13;0,3;2,2;154,3;27,2;75,2;1003,1;62,0;0,0;
05/02/2024 08:00;7;6;10;18;26;44;16;0,3;3,0;166,3;27,7;73,0;1003,6;160,0;0,0;
05/02/2024 09:00;6;3;7;11;37;41;12;0,3;3,1;141,4;29,3;66,1;1004,1;249,0;0,0;
05/02/2024 10:00;7;2;5;8;42;32;16;0,2;4,3;114,4;30,5;60,5;1004,1;707,0;0,0;
05/02/2024 11:00;;1;4;6;45;38;15;0,2;4,9;117,3;30,9;58,3;1003,8;972,0;0,0;
05/02/2024 12:00;;2;4;6;46;32;11;0,2;4,9;110,2;30,8;59,3;1003,5;946,0;0,0;
05/02/2024 13:00;;2;4;6;46;32;8;0,2;4,8;105,5;30,7;59,7;1002,8;902,0;0,0;
05/02/2024 14:00;;2;4;7;46;31;12;0,2;4,3;101,8;30,8;59,3;1002,2;863,0;0,0;
05/02/2024 15:00;;1;4;6;44;34;14;0,2;4,4;97,9;30,6;61,8;1001,6;646,0;0,0;
05/02/2024 16:00;;2;4;6;43;28;13;0,3;4,3;95,6;30,1;65,4;1001,1;212,0;0,0;
05/02/2024 17:00;;2;4;7;43;32;14;0,3;4,0;88,6;29,8;65,7;1001,2;169,0;0,0;
05/02/2024 18:00;7;2;6;9;38;34;13;0,4;3,4;84,3;29,0;70,5;1001,5;32,0;0,0;
05/02/2024 19:00;6;1;6;8;33;33;17;0,3;2,9;86,5;28,4;75,6;1001,8;0,0;0,0;
05/02/2024 20:00;7;1;5;7;33;29;13;0,3;3,0;84,0;28,4;72,4;1002,6;0,0;0,0;
05/02/2024 21:00;7;1;4;5;35;30;13;0,2;3,1;84,1;28,2;73,4;1003,3;0,0;0,0;
05/02/2024 22:00;7;1;4;5;30;29;13;0,2;2,5;88,2;28,2;75,2;1003,8;0,0;0,0;
05/02/2024 23:00;8;1;3;4;31;35;23;0,2;3,0;87,4;28,1;77,7;1004,0;0,0;0,0;
06/02/2024 00:00;7;1;2;3;32;36;15;0,2;3,0;83,1;28,1;77,7;1003,8;0,0;0,0;0,8
06/02/2024 01:00;6;0;2;3;35;33;24;0,2;2,7;88,9;28,0;76,3;1003,2;0,0;0,0;
06/02/2024 02:00;5;1;2;3;36;38;14;0,2;2,5;97,6;27,9;78,5;1002,8;0,0;0,0;
06/02/2024 03:00;5;0;2;3;40;39;21;0,2;2,4;100,4;27,8;78,9;1002,9;0,0;0,0;
06/02/2024 04:00;5;0;2;2;41;38;16;0,2;2,2;107,4;27,7;77,8;1002,9;0,0;0,0;
06/02/2024 05:00;5;1;2;3;39;45;25;0,3;1,8;113,1;27,7;78,0;1003,0;0,0;0,0;
06/02/2024 06:00;5;1;4;5;34;48;16;0,3;1,6;121,0;27,6;78,3;1003,5;3,0;0,0;
06/02/2024 07:00;6;2;8;11;28;54;15;0,4;1,6;119,2;28,0;77,3;1004,1;66,0;0,0;
06/02/2024 08:00;5;4;9;14;27;60;25;0,4;2,3;131,2;29,0;71,9;1004,9;182,0;0,0;
06/02/2024 09:00;5;3;7;11;38;56;25;0,3;2,5;116,5;28,9;74,2;1005,4;198,0;0,6;
06/02/2024 10:00;5;3;7;11;41;45;19;0,3;2,9;124,2;29,9;68,0;1005,5;459,0;0,0;
06/02/2024 11:00;8;2;4;7;37;42;21;0,3;4,0;103,7;30,7;61,5;1005,4;895,0;0,2;
06/02/2024 12:00;11;1;4;6;33;42;19;0,3;4,2;105,8;31,0;60,4;1005,2;942,0;0,0;
06/02/2024 13:00;9;2;4;6;34;39;15;0,3;4,5;99,7;30,9;60,0;1004,4;935,0;0,0;
06/02/2024 14:00;9;1;4;6;32;43;16;0,3;4,0;93,0;30,9;61,5;1003,7;743,0;0,0;
06/02/2024 15:00;9;1;4;6;28;29;19;0,3;4,4;96,3;30,3;64,4;1003,1;484,0;0,0;
06/02/2024 16:00;10;1;4;6;29;35;21;0,3;4,2;99,5;30,0;66,7;1002,8;225,0;0,0;
06/02/2024 17:00;11;2;5;8;32;39;20;0,3;3,7;97,3;29,4;70,9;1002,9;144,0;0,0;
06/02/2024 18:00;11;3;6;11;28;38;16;0,4;3,7;83,4;28,8;74,1;1003,3;31,0;0,0;
06/02/2024 19:00;10;1;6;7;24;33;15;0,3;3,0;83,8;28,5;76,0;1003,5;0,0;0,0;
06/02/2024 20:00;11;1;5;6;25;27;15;0,3;3,1;82,7;28,4;74,5;1003,9;0,0;0,0;
06/02/2024 21:00;11;1;4;5;26;37;15;0,2;3,0;82,8;28,3;75,2;1004,5;0,0;0,0;
06/02/2024 22:00;12;1;3;4;26;34;23;0,2;2,8;86,3;28,1;77,4;1004,8;0,0;0,0;
06/02/2024 23:00;11;0;3;4;25;33;17;0,2;2,8;85,5;28,0;78,8;1004,6;0,0;0,0;
07/02/2024 00:00;12;1;3;4;27;37;21;0,2;2,8;86,4;28,0;79,7;1004,1;0,0;0,0;0,0
07/02/2024 01:00;11;1;3;3;28;36;21;0,2;2,5;93,5;27,9;79,7;1003,2;0,0;0,0;
07/02/2024 02:00;10;1;2;3;27;36;16;0,2;2,4;98,8;27,8;79,5;1002,6;0,0;0,0;
07/02/2024 03:00;10;1;2;3;26;36;16;0,2;2,4;97,4;27,8;78,1;1002,3;0,0;0,0;
07/02/2024 04:00;9;1;2;3;33;36;14;0,2;2,0;104,0;27,7;79,4;1002,1;0,0;0,0;
07/02/2024 05:00;9;1;3;3;33;32;15;0,2;2,4;104,6;27,7;78,7;1002,4;0,0;0,0;
07/02/2024 06:00;10;1;4;6;23;33;17;0,2;1,7;116,5;27,6;78,8;1002,8;4,0;0,0;
07/02/2024 07:00;10;2;7;10;20;37;23;0,3;1,8;116,9;28,1;78,2;1003,3;79,0;0,0;
07/02/2024 08:00;9;3;6;10;26;47;17;0,3;3,8;114,9;29,0;71,9;1003,7;182,0;0,0;
07/02/2024 09:00;8;3;5;10;31;44;20;0,3;3,6;99,1;29,8;68,7;1004,0;206,0;0,0;
07/02/2024 10:00;7;2;5;8;33;43;18;0,2;3,9;112,1;29,9;67,9;1004,1;514,0;0,0;
07/02/2024 11:00;7;1;4;7;36;37;13;0,2;4,1;97,9;30,7;63,9;1004,1;785,0;0,0;
07/02/2024 12:00;7;1;4;6;31;38;12;0,2;4,7;94,4;31,0;59,0;1003,9;1020,0;0,0;
07/02/2024 13:00;7;2;4;7;32;37;15;0,2;4,5;106,0;31,0;59,8;1003,0;997,0;0,0;
07/02/2024 14:00;13;2;4;7;33;43;11;0,2;3,8;101,1;31,3;59,4;1002,2;899,0;0,0;
07/02/2024 15:00;16;1;4;6;38;38;8;0,2;4,2;96,8;31,0;61,4;1001,7;620,0;0,0;
07/02/2024 16:00;16;2;5;7;47;32;17;0,2;3,9;102,5;30,6;64,5;1001,4;164,0;0,0;
07/02/2024 17:00;15;3;6;10;38;42;14;0,3;3,2;102,3;30,2;66,0;1001,4;165,0;0,0;
07/02/2024 18:00;16;3;9;13;34;43;15;0,4;3,0;89,9;29,2;73,0;1001,7;33,0;0,0;
07/02/2024 19:00;17;1;8;10;32;42;21;0,3;2,4;86,4;28,6;76,1;1002,1;0,0;0,0;
07/02/2024 20:00;17;1;7;8;31;36;15;0,3;2,5;83,5;28,4;75,5;1002,6;0,0;0,0;
07/02/2024 21:00;17;1;6;7;31;40;17;0,3;2,2;79,0;28,3;77,0;1003,4;0,0;0,0;
07/02/2024 22:00;16;1;5;6;36;38;17;0,3;2,3;82,9;28,2;78,9;1003,8;0,0;0,0;
07/02/2024 23:00;16;0;4;5;32;38;19;0,3;2,7;84,4;28,1;77,1;1003,8;0,0;0,0;
08/02/2024 00:00;16;1;4;5;31;37;16;0,3;2,8;83,1;28,1;78,2;1003,3;0,0;0,0;1,9
08/02/2024 01:00;15;1;3;4;31;35;18;0,2;2,5;82,5;28,0;79,7;1002,7;0,0;0,0;
08/02/2024 02:00;13;1;3;4;30;38;13;;2,4;91,2;27,9;79,9;1002,3;0,0;0,0;
08/02/2024 03:00;14;1;4;5;28;38;22;0,2;2,5;78,8;27,1;86,2;1001,6;0,0;1,7;
08/02/2024 04:00;15;1;3;4;31;41;18;;2,2;86,4;27,0;83,4;1001,6;0,0;0,0;
08/02/2024 05:00;14;1;4;5;29;44;22;0,2;1,8;91,8;27,2;83,2;1001,5;0,0;0,0;
08/02/2024 06:00;15;1;6;8;26;43;20;0,2;2,0;94,9;27,3;81,7;1001,7;8,0;0,0;
08/02/2024 07:00;15;1;8;10;25;38;16;0,2;2,4;95,9;27,8;78,1;1002,2;86,0;0,0;
08/02/2024 08:00;14;3;7;10;29;40;19;0,2;3,3;99,1;28,8;73,3;1002,9;177,0;0,0;
08/02/2024 09:00;11;2;5;9;33;45;17;;3,5;100,2;29,9;68,0;1003,4;256,0;0,0;
08/02/2024 10:00;12;2;5;7;32;34;16;;3,6;96,8;29,9;67,8;1003,6;487,0;0,2;
08/02/2024 11:00;12;2;4;7;32;38;14;;4,2;95,8;30,5;61,6;1003,7;864,0;0,0;
08/02/2024 12:00;10;2;4;7;66;36;10;;4,2;101,3;30,8;61,1;1003,6;973,0;0,0;
08/02/2024 13:00;11;2;4;7;18;42;15;;3,9;99,7;31,2;57,8;1002,8;929,0;0,0;
08/02/2024 14:00;10;2;4;6;29;44;14;;4,3;94,3;31,1;58,9;1002,1;907,0;0,0;
08/02/2024 15:00;11;2;4;7;36;42;22;;3,9;101,4;30,9;61,5;1001,3;592,0;0,0;
08/02/2024 16:00;11;2;5;7;36;35;18;;3,7;95,2;30,7;62,5;1000,7;173,0;0,0;
08/02/2024 17:00;11;2;6;9;38;42;24;;3,5;89,9;30,1;65,3;1000,7;162,0;0,0;
08/02/2024 18:00;10;2;8;11;41;43;18;;3,1;89,6;29,1;71,3;1001,1;31,0;0,0;
08/02/2024 19:00;9;1;6;8;37;39;22;;2,8;82,8;28,5;74,5;1001,5;0,0;0,0;
08/02/2024 20:00;9;1;6;7;33;40;21;;2,9;85,5;28,4;74,9;1002,3;0,0;0,0;
08/02/2024 21:00;9;1;5;6;30;42;22;;2,7;83,3;28,3;77,4;1003,1;0,0;0,0;
08/02/2024 22:00;10;0;4;5;24;43;22;;2,8;84,3;28,3;77,2;1003,7;0,0;0,0;
08/02/2024 23:00;10;1;4;5;21;41;23;;2,2;86,0;28,3;78,0;1003,7;0,0;0,0;
09/02/2024 00:00;10;0;4;5;22;39;27;;2,3;71,5;27,9;82,8;1003,6;0,0;0,0;0,0
09/02/2024 01:00;9;0;4;4;23;39;19;;2,4;76,9;27,8;81,4;1003,0;0,0;0,0;
09/02/2024 02:00;7;1;3;4;24;41;20;;2,1;84,2;27,7;81,3;1002,4;0,0;0,0;
09/02/2024 03:00;6;1;3;4;25;53;25;;1,9;96,5;27,7;81,1;1002,2;0,0;0,0;
09/02/2024 04:00;7;0;3;4;24;40;24;;2,0;96,5;27,7;80,6;1002,0;0,0;0,0;
09/02/2024 05:00;5;1;3;4;21;49;26;;2,0;106,6;27,8;78,8;1002,0;0,0;0,0;
09/02/2024 06:00;3;0;4;5;18;47;25;;2,3;109,7;27,9;77,8;1002,4;2,0;0,0;
09/02/2024 07:00;2;1;7;9;16;50;28;;2,2;109,4;28,2;77,0;1002,7;90,0;0,0;
09/02/2024 08:00;2;2;7;10;19;59;19;;3,3;103,6;29,0;72,3;1003,2;159,0;0,0;
09/02/2024 09:00;2;2;6;9;25;77;30;;3,4;100,2;29,6;69,4;1003,5;223,0;0,0;
09/02/2024 10:00;1;2;6;8;25;70;35;;3,6;98,3;30,3;66,5;1003,9;481,0;0,0;
09/02/2024 11:00;2;1;4;7;26;70;28;;3,7;99,2;30,8;62,5;1003,9;729,0;0,0;
09/02/2024 12:00;3;1;4;7;26;67;32;;3,9;93,0;30,9;63,6;1003,5;651,0;0,0;
09/02/2024 13:00;1;2;4;7;26;64;29;;3,6;98,7;30,7;64,5;1002,9;694,0;0,0;
09/02/2024 14:00;2;2;4;7;28;65;25;;3,5;97,1;30,9;64,4;1002,4;620,0;0,0;
09/02/2024 15:00;2;2;5;7;26;63;25;;3,4;85,6;30,9;64,6;1001,5;436,0;0,0;
09/02/2024 16:00;3;2;5;7;24;64;28;;3,2;90,7;30,5;68,4;1001,0;218,0;0,0;
09/02/2024 17:00;3;2;6;10;24;54;21;;3,2;102,4;29,8;70,1;1001,1;139,0;0,0;
09/02/2024 18:00;3;2;9;12;21;54;21;;3,0;98,2;29,1;73,6;1001,7;32,0;0,0;
09/02/2024 19:00;3;1;7;8;21;62;31;;2,7;85,5;28,7;76,8;1002,2;0,0;0,0;
09/02/2024 20:00;3;0;6;7;25;66;27;;2,5;86,2;28,6;77,4;1002,8;0,0;0,0;
09/02/2024 21:00;3;1;5;7;26;78;43;;2,2;86,4;28,6;78,4;1003,8;0,0;0,0;
09/02/2024 22:00;4;1;4;5;28;77;36;;2,5;84,8;28,5;78,1;1004,2;0,0;0,0;
09/02/2024 23:00;3;1;4;5;27;57;34;;2,6;86,6;28,5;78,0;1004,3;0,0;0,0;
10/02/2024 00:00;3;1;3;4;28;55;35;;2,5;88,3;28,3;78,3;1004,0;0,0;0,0;83,2
10/02/2024 01:00;6;1;3;4;30;50;27;;2,1;94,6;28,2;78,7;1003,2;0,0;0,0;
10/02/2024 02:00;9;1;3;4;31;43;23;;2,5;106,0;25,4;93,2;1002,7;0,0;11,4;
10/02/2024 03:00;9;0;4;5;23;55;31;;1,1;87,4;25,1;98,0;1002,4;0,0;3,9;
10/02/2024 04:00;9;1;4;5;30;45;30;;0,8;83,7;24,9;96,8;1002,4;0,0;0,2;
10/02/2024 05:00;10;1;8;9;15;55;25;;0,9;175,1;25,5;95,8;1002,5;0,0;1,3;
10/02/2024 06:00;11;1;6;7;28;32;27;;1,5;131,7;24,7;95,9;1002,7;2,0;0,9;
10/02/2024 07:00;11;1;7;9;31;34;24;;1,7;130,2;25,0;91,7;1003,2;70,0;0,2;
10/02/2024 08:00;11;3;12;17;16;35;27;;1,6;171,0;25,5;94,9;1003,7;79,0;5,4;
10/02/2024 09:00;10;4;12;18;19;38;30;;1,7;186,7;25,8;96,9;1004,4;209,0;10,2;
10/02/2024 10:00;11;2;11;14;21;31;26;;0,4;171,6;25,4;98,7;1005,0;107,0;0,6;
10/02/2024 11:00;11;2;8;12;40;21;16;;4,6;39,0;23,6;98,8;1005,8;15,0;23,1;
10/02/2024 12:00;11;1;6;8;46;27;21;;3,4;60,5;23,4;98,4;1005,7;39,0;7,1;
10/02/2024 13:00;10;1;7;8;45;26;20;;2,2;83,4;23,9;97,1;1005,4;60,0;3,7;
10/02/2024 14:00;11;1;10;12;40;32;23;;1,2;99,1;24,2;95,8;1004,5;153,0;2,2;
10/02/2024 15:00;11;2;9;11;47;29;17;;2,1;87,2;24,9;93,0;1003,7;217,0;2,2;
10/02/2024 16:00;11;1;11;13;55;36;14;;1,8;40,4;23,7;90,5;1002,8;104,0;4,8;
10/02/2024 17:00;11;2;14;16;52;54;31;0,2;1,1;111,1;25,5;84,7;1002,9;98,0;0,0;
10/02/2024 18:00;15;1;12;12;51;65;30;0,5;0,7;51,0;26,2;85,2;1003,2;23,0;0,0;
10/02/2024 19:00;15;1;27;29;17;71;36;0,8;0,4;53,9;25,7;91,0;1003,1;0,0;0,0;
10/02/2024 20:00;16;4;32;39;4;80;42;1,1;0,5;217,0;25,1;94,2;1003,6;0,0;0,0;
10/02/2024 21:00;16;6;32;41;3;88;38;1,3;0,6;212,8;25,0;94,7;1004,1;0,0;0,0;
10/02/2024 22:00;16;8;30;42;3;97;45;1,3;0,7;222,8;25,0;94,5;1004,6;0,0;0,0;
10/02/2024 23:00;15;2;25;29;6;75;41;1,1;0,8;192,3;24,9;95,8;1005,0;0,0;6,0;
11/02/2024 00:00;16;1;12;14;29;37;28;0,7;1,8;134,8;23,5;98,9;1004,8;0,0;17,1;77,3
11/02/2024 01:00;14;1;6;7;37;25;11;0,3;1,0;174,2;23,0;98,9;1004,4;0,0;0,6;
11/02/2024 02:00;12;0;6;7;36;27;11;0,3;1,4;165,1;23,3;99,0;1003,8;0,0;1,5;
11/02/2024 03:00;11;1;4;4;43;22;13;0,2;1,3;207,8;22,7;99,0;1003,1;0,0;0,9;
11/02/2024 04:00;11;0;4;4;40;20;20;0,2;1,8;201,5;22,9;99,0;1003,0;0,0;2,4;
11/02/2024 05:00;11;1;4;5;38;24;18;0,2;0,4;227,1;23,0;99,0;1002,9;0,0;11,7;
11/02/2024 06:00;11;1;6;8;36;15;16;0,2;2,1;30,2;22,9;99,0;1003,7;0,0;31,1;
11/02/2024 07:00;12;1;7;9;41;13;8;0,2;0,3;358,6;22,1;99,0;1004,3;2,0;9,7;
11/02/2024 08:00;11;2;13;16;29;17;11;0,3;0,4;256,7;22,4;99,0;1004,8;11,0;1,7;
11/02/2024 09:00;11;2;13;15;29;17;15;0,3;0,7;218,1;22,7;98,9;1005,4;41,0;0,4;
11/02/2024 10:00;10;2;15;18;26;35;32;0,4;0,4;195,7;23,3;98,9;1005,4;120,0;0,0;
11/02/2024 11:00;9;4;16;22;25;37;22;0,4;1,2;161,4;24,6;98,8;1004,9;312,0;0,0;
11/02/2024 12:00;9;2;7;9;40;38;15;0,2;2,6;152,2;27,2;82,2;1004,0;352,0;0,0;
11/02/2024 13:00;8;1;7;9;47;37;12;0,2;1,9;142,4;28,2;75,8;1003,0;256,0;0,0;
11/02/2024 14:00;8;1;6;7;59;45;25;0,2;2,0;108,4;28,7;74,5;1002,1;366,0;0,2;
11/02/2024 15:00;10;1;4;5;54;41;19;0,2;2,1;104,2;28,8;74,9;1001,3;293,0;0,0;
11/02/2024 16:00;10;1;4;5;36;35;18;0,2;2,0;92,9;28,5;76,3;1000,8;139,0;0,0;
11/02/2024 17:00;10;1;5;6;31;39;18;0,2;1,4;89,4;28,2;76,5;1000,6;71,0;0,0;
11/02/2024 18:00;10;1;7;8;26;35;10;0,2;0,9;93,9;27,8;79,4;1000,7;27,0;0,0;
11/02/2024 19:00;11;1;12;13;17;38;17;0,3;0,3;130,6;27,1;84,7;1001,0;0,0;0,0;
11/02/2024 20:00;10;6;19;28;3;58;23;0,6;0,3;177,4;26,4;90,1;1001,7;0,0;0,0;
11/02/2024 21:00;11;14;18;39;3;59;26;0,7;0,3;181,4;26,0;93,3;1002,5;0,0;0,0;
11/02/2024 22:00;11;15;19;41;3;58;25;1,0;0,5;134,8;25,8;94,2;1003,0;0,0;0,0;
11/02/2024 23:00;11;3;15;19;8;55;32;0,5;0,8;160,1;26,1;93,1;1003,0;0,0;0,0;
12/02/2024 00:00;11;9;15;29;5;57;29;0,6;0,6;197,7;25,8;95,1;1002,9;0,0;0,0;0,0
12/02/2024 01:00;11;5;13;21;5;53;28;0,5;0,8;188,6;25,9;95,1;1002,6;0,0;0,0;
12/02/2024 02:00;10;2;12;14;6;43;28;0,3;0,6;174,7;25,6;95,7;1002,3;0,0;0,0;
12/02/2024 03:00;10;1;11;12;6;41;26;0,2;0,6;194,9;25,4;96,4;1001,9;0,0;0,0;
12/02/2024 04:00;9;1;9;10;8;50;30;0,2;0,9;192,4;25,4;96,7;1001,8;0,0;0,0;
12/02/2024 05:00;10;1;9;10;7;40;18;0,2;0,9;194,6;25,4;96,4;1001,8;0,0;0,0;
12/02/2024 06:00;10;1;11;12;7;43;27;0,2;1,0;153,4;25,4;95,5;1002,0;3,0;0,0;
12/02/2024 07:00;10;2;10;13;10;41;24;0,2;1,7;148,6;26,2;89,6;1002,4;59,0;0,0;
12/02/2024 08:00;9;3;8;12;15;39;18;0,2;1,7;165,6;27,7;81,3;1003,0;201,0;0,0;
12/02/2024 09:00;9;2;6;9;22;36;13;0,1;2,6;143,7;28,7;75,1;1003,6;282,0;0,0;
12/02/2024 10:00;9;1;5;7;33;27;13;0,1;2,9;139,2;29,4;66,9;1003,8;304,0;0,0;
12/02/2024 11:00;8;1;4;5;35;29;13;0,1;3,6;118,0;30,1;63,0;1003,7;637,0;0,0;
12/02/2024 12:00;9;1;3;5;36;22;6;0,1;4,4;110,9;30,4;61,5;1003,3;916,0;0,0;
12/02/2024 13:00;9;1;3;4;38;24;11;0,1;5,0;108,7;30,3;62,8;1002,4;979,0;0,0;
12/02/2024 14:00;10;1;3;4;37;23;20;0,1;4,9;114,6;30,4;64,3;1001,7;877,0;0,0;
12/02/2024 15:00;9;1;3;4;41;36;12;0,1;4,4;105,9;30,4;65,8;1000,8;500,0;0,0;
12/02/2024 16:00;9;1;2;3;42;25;8;0,1;4,0;100,3;30,0;70,1;1000,3;142,0;0,0;
12/02/2024 17:00;9;1;3;4;36;33;24;0,1;3,8;89,4;29,4;74,9;1000,0;137,0;0,0;
12/02/2024 18:00;9;1;3;4;35;31;15;0,1;3,2;83,7;28,6;80,3;1000,4;30,0;0,0;
12/02/2024 19:00;10;0;4;4;31;35;9;0,1;3,0;84,0;28,2;82,1;1001,1;0,0;0,0;
12/02/2024 20:00;10;1;3;4;29;41;15;0,1;2,5;82,5;28,1;80,7;1001,8;0,0;0,0;
12/02/2024 21:00;10;1;3;4;33;37;23;0,1;2,1;83,2;28,0;83,3;1002,5;0,0;0,0;
12/02/2024 22:00;9;1;3;4;30;39;21;0,1;2,6;84,0;28,0;82,9;1003,0;0,0;0,0;
12/02/2024 23:00;10;0;3;3;30;44;17;0,1;2,7;83,8;28,0;83,3;1003,3;0,0;0,0;
13/02/2024 00:00;11;0;2;3;30;36;21;0,1;2,7;80,8;28,0;82,3;1003,4;0,0;0,0;19,5
13/02/2024 01:00;10;0;2;3;30;34;17;0,1;2,5;85,3;28,0;82,9;1002,9;0,0;0,0;
13/02/2024 02:00;9;0;2;3;30;36;19;0,2;3,0;91,0;28,0;82,5;1002,2;0,0;0,0;
13/02/2024 03:00;9;0;2;3;30;28;21;0,1;2,9;94,3;27,9;80,5;1002,0;0,0;0,0;
13/02/2024 04:00;8;1;2;3;28;33;18;0,1;2,3;96,4;27,7;82,1;1001,7;0,0;0,0;
13/02/2024 05:00;8;0;2;3;27;34;25;0,1;1,9;95,2;27,5;83,4;1001,8;0,0;0,0;
13/02/2024 06:00;7;0;3;4;27;38;17;0,1;1,9;85,9;26,9;85,5;1002,1;2,0;1,9;
13/02/2024 07:00;8;1;3;4;26;27;20;0,2;2,6;132,6;24,6;95,7;1002,9;33,0;9,9;
13/02/2024 08:00;8;1;4;5;32;21;24;0,2;2,5;126,9;23,6;98,9;1004,0;43,0;7,3;
13/02/2024 09:00;8;1;6;8;27;30;22;0,2;1,4;139,6;24,7;98,1;1004,5;210,0;0,0;
13/02/2024 10:00;8;1;4;6;30;23;12;0,2;2,9;116,6;28,0;84,0;1004,5;486,0;0,0;
13/02/2024 11:00;8;1;3;4;32;22;15;0,2;2,7;117,0;28,3;80,0;1004,6;446,0;0,4;
13/02/2024 12:00;8;1;3;4;34;19;23;0,2;2,7;142,3;27,5;83,4;1004,4;295,0;0,0;
13/02/2024 13:00;7;1;3;5;34;27;14;0,2;1,9;114,5;28,3;78,8;1003,8;501,0;0,0;
13/02/2024 14:00;8;1;2;4;35;18;14;0,2;3,0;83,5;29,5;69,5;1002,9;551,0;0,0;
13/02/2024 15:00;7;1;2;3;33;20;16;0,2;2,7;81,2;29,4;71,4;1002,4;376,0;0,0;
13/02/2024 16:00;7;1;2;4;34;21;9;0,2;2,7;77,6;29,3;73,6;1001,8;201,0;0,0;
13/02/2024 17:00;8;1;3;4;34;18;17;0,2;2,1;83,2;28,5;79,1;1001,5;111,0;0,0;
13/02/2024 18:00;9;1;3;4;31;23;14;0,2;1,8;80,6;28,1;82,8;1002,3;33,0;0,0;
13/02/2024 19:00;8;1;4;6;28;25;13;0,2;1,7;62,2;27,7;85,1;1003,1;0,0;0,0;
13/02/2024 20:00;8;1;7;9;25;23;18;0,2;0,7;89,7;27,6;83,2;1004,2;0,0;0,0;
13/02/2024 21:00;9;1;10;12;17;19;15;0,3;0,6;118,8;27,4;85,5;1005,2;0,0;0,0;
13/02/2024 22:00;9;3;15;19;7;31;17;0,4;0,6;180,6;26,9;88,9;1005,5;0,0;0,0;
13/02/2024 23:00;8;3;17;21;7;34;17;0,4;1,0;176,7;26,5;92,4;1005,6;0,0;0,0;